Weather in Alonka

Russia / Khabarovsk Krai     51°20′28″N   132°26′28″E
temp.,
°C
wind,
m/s
gust,
m/s
humid.,
%
clouds,
%
prec.,
mm/h
press.,
hPa
HPBL,
m
27 february, sat
sat2701:00−23n019774 0.0 103520
04:00−24ene119987 0.0 103420
07:00−25n1199100 0.0 103320
10:00−21ene1193100 0.1 1030173
13:00−15ene1181100 0.0 1025343
16:00−13nne1184100 0.1 1019275
19:00−14nnw1193100 0.0 101620
22:00−13s4995100 1.0 1015516
28 february, sun
sun2801:00−13s3696100 1.2 1013324
04:00−15ssw2397100 1.3 101396
07:00−18sw229697 0.1 101724
10:00−16w387564 0.1 1019841
13:00−14w476614 0.0 10211165
16:00−15w57688 0.0 10221062
19:00−20w38828 0.0 1026234
22:00−24w22874 0.0 102927
1 march, mon
mon101:00−27wnw12900 0.0 103020
04:00−28w119228 0.0 103319
07:00−30wnw119227 0.0 103419
10:00−25w128314 0.0 1034221
13:00−19wnw38570 0.0 10331427
16:00−19wnw59580 0.0 10311381
19:00−25wnw22838 0.0 103320
22:00−27w22904 0.0 103519
2 march, tue
tue201:00−30wnw11910 0.0 103519
04:00−31w11920 0.0 103519
07:00−32wnw11930 0.0 103619
10:00−27ene11880 0.0 1035173
13:00−20se127860 0.0 1032512
16:00−19sse238175 0.1 1030608
19:00−23se1192100 0.0 103120
22:00−26n119390 0.0 103219
3 march, wed
wed301:00−26nne129583 0.0 103020
04:00−26nne129992 0.1 102841
07:00−25nne1199100 0.2 102535
10:00−22ne1193100 0.5 1022196
13:00−17s2387100 0.3 1018382
16:00−13s4884100 0.5 1014939
19:00−15sse3791100 0.2 1013273
22:00−16s3794100 0.5 1013311